Dewpoint
12 12 11 11 11 11 11 11 10 9 9 9 9 9 10 10 10 10 10 10 10 9 8 7 7 7 7 7 8 8 8 8 7 7 6 7 9 9 7 6 5 7 9
11 12 11 11 10 11 11 11 10 10 10 9 10 10 10 9 9 9 8 7 7 7 7 6 6 6 7 8 8 7 6 7 6 6 7 7 8 9 10 9 8 6 3
11 11 11 11 10 9 9 9 9 10 10 9 9 9 7 4 3 2 4 4 4 5 6 6 6 5 4 3 3 1 0 -0 0 3 7 8 9 11 10 9 8 8 7
11 11 10 10 9 9 9 9 9 9 8 7 4 -1 -2 -2 -1 -1 -1 -2 -3 -3 -3 -2 -2 -2 -2 -1 -1 -1 -1 -1 0 2 5 9 9 9 9 9 8 8 8
11 11 11 10 10 9 8 7 6 2 -2 -4 -3 -3 -3 -2 -2 -4 -6 -5 -3 -2 -2 -2 -2 -4 -6 -5 -3 -1 -0 -0 -1 3 6 8 9 9 8 7 9 8 7
11 11 11 10 8 7 2 -2 -4 -5 -5 -3 -5 -4 -3 -3 -6 -6 -6 -4 -3 -3 -4 -8 -12 -13 -13 -12 -11 -7 -4 -0 1 -1 6 8 9 8 7 7 7 6 6
12 11 10 7 2 -5 -6 -6 -5 -5 -6 -7 -5 -3 -3 -8 -9 -8 -6 -6 -6 -6 -7 -8 -8 -8 -8 -8 -8 -8 -9 -5 2 2 4 8 8 7 6 7 6 5 6
11 9 5 -3 -5 -6 -8 -9 -9 -11 -8 -5 -2 -3 -8 -8 -5 -2 0 0 1 1 -1 -2 -2 -1 -3 -4 -2 -1 -1 -7 -8 6 8 8 8 7 6 6 6 6 5
8 1 -5 -5 -7 -9 -12 -14 -13 -9 -5 -3 -5 -7 -2 -1 1 2 1 0 -0 1 1 -0 -3 -3 -2 -1 -1 -0 0 1 -0 2 7 7 7 6 5 6 6 5 3
-2 -4 -6 -7 -8 -10 -14 -14 -12 -8 -5 -7 -4 1 0 2 2 2 2 -0 -1 -0 1 -0 -1 -2 -2 -2 -2 -1 -1 -1 0 3 4 5 5 4 4 4 3 3 2
-4 -5 -4 -3 -5 -8 -12 -13 -12 -10 -7 -2 2 3 3 4 4 3 2 2 2 2 2 1 -0 -2 -1 -1 -1 -1 -2 -1 -0 0 -0 -1 -1 -1 -1 -0 2 2 2
-5 -3 3 3 -4 -0 -0 -2 -4 -1 2 2 5 6 5 3 4 4 3 3 3 3 2 2 2 1 1 1 1 1 0 -0 -1 -1 -0 0 0 0 -1 -3 -1 1 1
0 4 4 4 0 4 4 4 4 4 5 5 5 6 7 5 4 5 5 4 4 2 2 3 3 3 4 4 3 2 2 2 1 1 1 1 2 2 2 2 2 -1 -3
4 4 6 4 0 5 6 7 7 6 6 6 7 7 7 8 7 5 4 5 4 2 2 2 3 3 4 4 4 4 2 3 4 3 3 3 3 3 3 4 4 3 3
5 5 7 6 2 5 6 8 8 8 7 8 8 7 7 7 7 6 5 4 2 2 2 2 2 3 3 2 2 2 2 2 3 4 4 5 5 5 4 4 4 4 4
6 6 8 8 6 8 8 8 7 7 8 8 8 9 9 9 9 8 4 3 2 2 2 2 3 3 2 1 2 2 1 -0 1 3 3 5 5 5 5 5 4 4 4
6 7 8 9 7 8 8 8 7 6 6 8 9 8 8 9 9 7 5 4 5 4 3 4 3 2 2 2 3 3 1 -2 -4 -3 -3 -2 -0 1 3 5 4 3 4
6 7 9 9 9 8 8 8 7 7 7 7 8 7 8 9 8 6 5 6 6 5 5 4 3 3 3 3 2 0 -2 -4 -5 -7 -9 -11 -11 -10 -8 -4 -0 1 1
5 6 8 9 9 8 7 6 7 8 8 8 7 6 6 7 7 7 6 6 5 5 5 4 3 2 1 0 -1 -2 -3 -3 -5 -8 -13 -13 -6 -3 -2 -1 0 1 0
5 6 9 10 9 7 9 9 9 8 6 5 5 5 5 6 6 5 4 4 3 2 1 0 -0 -0 -1 -2 -3 -4 -6 -12 -17 -14 -6 -2 -1 -2 -1 -0 0 0 1
8 9 10 10 9 9 9 8 5 6 5 2 0 -0 1 3 3 3 2 1 0 0 0 0 0 -2 -6 -11 -16 -15 -17 -10 -3 -6 -7 -5 -5 -8 -11 -10 -8 -4 -0
10 10 8 4 5 5 5 5 3 2 -1 -3 -3 -3 -2 -2 -2 -1 1 1 1 1 1 -2 -5 -9 -12 -15 -14 -13 -7 -9 -8 -5 -4 -9 -8 -10 -10 -11 -11 -11 -11
2 -0 -0 -0 1 1 -0 -1 -3 -3 -3 -1 -1 -1 -1 -1 0 1 2 2 1 -2 -4 -6 -7 -9 -10 -13 -10 -5 -3 -3 -4 -6 -6 -5 -5 -7 -8 -8 -9 -9 -8
-0 0 0 -1 -1 -3 -3 -2 -2 -1 -0 0 0 0 1 1 1 1 -1 -3 -4 -5 -5 -7 -11 -11 -11 -10 -8 -6 -4 -2 -2 -2 -4 -6 -8 -8 -8 -7 -7 -8 -7
1 2 2 2 1 0 0 1 0 0 0 1 1 1 1 -1 -2 -4 -5 -5 -5 -5 -9 -12 -9 -7 -6 -6 -5 -5 -5 -6 -5 -3 -4 -4 -4 -7 -8 -8 -7 -7 -9
3 3 3 3 3 2 2 1 1 1 0 0 -0 -2 -5 -7 -8 -8 -6 -6 -6 -8 -14 -9 -7 -6 -5 -5 -6 -6 -6 -5 -5 -5 -5 -5 -5 -6 -7 -9 -7 -8 -8
Wind_Speed
23 21 19 17 18 17 15 14 14 12 11 11 11 10 9 8 9 8 8 7 6 6 6 5 3 3 4 6 7 8 7 5 5 6 5 4 4 5 6 7 8 8 6
23 21 19 18 17 17 16 14 13 11 11 11 10 9 7 7 7 5 5 5 5 4 3 2 3 4 6 7 7 7 6 6 5 6 5 5 4 4 5 7 7 7 6
22 22 19 17 17 16 15 14 12 11 11 10 8 7 6 5 5 4 4 4 3 2 2 3 4 5 7 7 7 7 7 7 6 6 6 6 4 5 4 5 7 8 7
23 22 19 18 16 16 14 12 12 11 9 8 6 6 6 5 5 5 5 5 6 6 6 5 6 6 6 6 6 5 5 5 5 5 5 5 4 2 4 6 8 8 7
22 20 18 16 15 14 12 11 10 8 7 6 6 6 6 6 6 6 6 7 7 7 8 8 7 7 6 5 5 5 5 5 4 4 4 4 5 7 8 10 8 10 9
21 19 17 15 14 13 12 10 9 7 6 6 6 6 6 7 7 7 7 7 7 7 8 8 8 8 8 8 8 7 6 5 4 2 4 5 6 7 7 5 7 9 10
20 19 17 15 14 12 10 8 7 6 6 6 7 8 7 7 7 8 8 8 8 7 7 8 9 9 9 9 9 9 8 8 6 4 1 3 5 6 6 6 7 11 13
18 18 17 15 12 9 7 6 6 6 7 8 8 9 8 8 9 9 9 10 9 8 8 8 9 8 9 9 9 10 11 10 8 4 2 3 4 6 5 7 9 11 14
18 18 16 13 10 8 7 6 7 8 9 9 9 9 9 8 9 10 11 10 11 11 10 10 11 11 11 10 10 11 10 10 9 7 5 5 6 7 9 9 10 13 14
19 16 13 11 9 8 8 8 8 8 9 9 9 9 8 9 8 8 7 8 8 7 7 9 9 10 10 11 11 11 11 11 9 9 9 8 9 10 12 14 14 14 15
19 16 12 8 8 8 9 10 10 10 10 10 10 8 6 7 6 5 4 5 6 4 5 4 6 7 8 10 11 13 12 12 11 10 10 12 13 15 16 15 16 16 16
18 15 11 8 8 10 10 10 10 10 9 11 10 7 5 4 2 2 3 4 4 4 3 3 4 6 7 9 10 11 11 11 11 10 10 11 12 13 14 15 16 18 18
16 15 11 9 11 10 9 8 10 9 8 7 5 4 3 3 4 3 4 5 5 5 5 5 6 6 7 9 11 12 12 12 13 13 11 11 12 13 14 15 16 17 18
17 14 13 11 11 10 8 6 6 5 3 2 0 2 4 4 7 7 7 8 8 7 8 9 10 10 11 13 16 16 16 17 18 19 18 17 16 15 15 16 17 19 19
17 15 13 12 11 12 11 9 7 5 4 4 5 5 7 8 9 10 12 11 10 11 12 12 14 15 16 18 19 21 23 24 23 22 21 21 21 21 21 20 20 21 21
17 15 15 13 12 11 9 5 4 7 9 9 10 9 9 9 10 10 11 11 11 14 15 16 17 19 19 19 21 24 27 29 28 26 24 23 23 24 25 25 25 25 24
18 18 18 16 14 11 10 6 3 6 9 12 11 10 11 11 12 11 10 11 13 16 18 18 19 21 22 25 27 29 31 32 30 28 28 28 28 28 29 30 30 30 29
24 24 24 22 19 14 10 3 4 11 13 15 12 12 13 14 13 14 14 16 18 18 19 21 23 24 26 28 30 32 32 31 29 27 27 27 26 25 23 24 27 28 29
26 29 29 24 19 17 13 17 19 19 18 16 11 12 14 16 17 17 18 17 16 18 22 23 25 27 29 31 32 33 32 30 30 29 27 26 24 21 22 23 22 23 25
28 30 29 21 18 13 18 14 14 8 3 2 7 8 9 11 13 14 15 17 19 22 24 26 27 27 30 32 33 32 30 28 26 22 19 19 21 23 23 23 25 24 24
16 18 16 16 15 15 3 3 3 2 5 10 12 13 14 16 17 19 21 23 24 26 26 28 30 31 31 31 33 34 32 13 5 14 23 24 21 23 27 29 29 30 29
10 4 2 8 8 6 5 4 3 5 7 13 16 16 16 17 19 21 22 23 24 26 29 30 30 31 30 30 30 31 14 24 11 6 14 25 25 22 25 27 27 28 29
16 16 14 12 9 7 5 6 5 4 8 13 17 19 20 20 18 19 21 23 26 27 27 29 28 28 30 27 24 18 10 7 26 19 21 19 21 26 20 20 20 19 21
15 14 14 13 9 6 4 2 4 7 11 13 15 17 16 17 19 22 24 25 26 26 26 28 29 28 25 21 19 17 16 20 18 15 13 25 22 18 16 13 13 12 12
9 9 7 5 2 2 4 5 8 9 12 13 13 16 16 18 20 22 23 23 24 25 27 27 24 21 18 17 16 17 17 17 17 14 23 15 23 22 17 15 14 13 12
8 7 5 2 4 8 8 9 10 13 15 15 15 15 18 20 20 20 20 22 24 25 26 25 23 20 16 14 14 13 14 13 15 14 20 23 24 27 26 22 12 13 14
Wind_Direction
167 165 154 150 154 152 153 153 151 146 138 134 129 125 117 109 108 109 109 105 98 102 100 99 81 50 12 359 347 346 347 342 329 316 327 327 8 28 14 15 24 41 47
161 159 154 157 154 156 158 160 158 150 146 142 138 134 123 115 108 112 97 86 83 74 69 56 14 353 348 344 337 332 328 322 311 309 319 315 346 4 5 17 16 24 28
158 155 154 157 157 158 163 160 155 151 148 142 137 122 115 107 104 91 82 70 48 24 5 1 350 342 344 338 335 331 322 313 308 303 308 323 12 53 26 23 21 20 10
158 151 152 154 155 158 157 150 153 147 141 135 133 124 107 92 79 65 56 48 39 33 34 34 30 20 13 351 347 338 327 319 310 302 290 302 338 340 4 358 349 2 -0
156 150 153 155 154 152 152 150 143 141 143 146 131 112 100 93 81 71 67 64 63 58 56 50 43 33 30 13 5 356 344 330 314 298 283 275 290 318 338 345 352 357 354
156 154 156 155 153 151 144 145 150 155 148 135 124 110 99 89 82 82 77 72 66 57 53 48 46 39 34 27 20 16 5 351 340 299 250 245 265 282 297 325 339 348 345
157 155 154 154 149 144 147 153 155 151 141 134 117 108 107 101 97 87 80 69 60 55 51 43 36 32 26 24 17 14 6 353 348 344 284 266 270 287 301 307 321 336 342
160 155 150 148 144 144 143 148 151 142 132 125 121 116 113 106 98 89 82 74 66 60 58 52 43 39 37 34 21 11 6 357 347 336 312 267 270 287 292 309 314 323 330
158 149 147 146 144 137 140 142 141 137 133 128 127 123 114 105 97 90 82 74 60 64 61 53 57 56 48 35 20 10 2 358 353 345 317 300 290 290 288 287 294 306 317
152 151 150 144 136 141 142 140 137 134 131 131 126 122 108 107 97 86 81 70 63 62 59 56 54 51 45 34 25 14 5 357 335 324 320 307 299 292 291 295 295 296 302
157 156 146 145 146 152 150 145 143 142 141 140 133 117 108 113 101 83 66 57 49 56 59 50 45 41 36 28 21 16 9 4 354 346 331 315 309 299 295 294 293 295 297
163 159 154 160 155 148 144 144 141 139 148 145 135 116 100 89 58 27 16 13 6 9 11 4 8 4 359 360 355 352 353 350 348 348 345 334 330 330 321 305 296 295 296
167 167 157 164 161 155 150 146 147 146 144 147 143 118 61 36 356 326 321 318 321 328 320 321 324 321 318 317 326 328 325 323 320 315 313 315 316 320 321 322 323 314 302
179 167 172 168 168 164 169 172 175 171 165 157 0 318 336 341 351 348 319 305 312 309 304 304 308 306 306 312 316 318 317 314 309 306 300 297 294 294 294 296 302 309 314
186 181 188 185 177 181 185 194 208 227 243 252 280 315 315 322 328 334 328 307 300 302 299 297 296 297 302 306 311 314 314 312 308 302 295 289 287 285 282 278 280 284 290
198 200 201 201 198 205 209 216 236 263 266 271 276 280 296 304 310 312 309 297 291 296 292 292 293 292 295 300 306 309 311 312 306 300 295 287 282 280 280 278 276 274 271
218 218 216 208 209 213 215 210 249 270 274 259 257 267 273 268 274 281 283 277 284 284 280 283 291 292 293 299 305 308 312 312 306 301 298 294 287 280 277 276 278 276 272
230 228 225 216 211 208 178 126 306 293 263 255 254 268 271 270 275 282 279 280 279 280 284 292 296 295 299 305 308 310 310 309 305 301 298 296 293 289 285 279 275 275 270
238 234 230 227 206 197 181 350 272 246 256 253 261 272 275 278 280 282 283 282 298 293 296 302 305 307 306 304 305 306 304 303 300 297 293 289 287 287 285 281 276 272 271
236 231 229 216 192 205 245 274 251 263 256 342 319 304 295 294 295 296 302 305 306 309 307 305 306 306 309 310 307 306 306 304 299 292 282 277 282 287 288 286 282 278 274
211 214 219 222 233 234 278 116 125 286 13 23 10 353 335 321 310 304 303 306 309 309 311 313 313 314 313 315 318 315 322 324 268 282 277 283 288 294 293 291 286 281 278
133 123 164 112 129 117 109 106 65 37 37 3 353 346 336 329 326 317 312 313 314 314 313 315 318 320 321 321 320 320 320 305 301 243 284 292 296 301 304 298 294 292 288
94 90 85 81 89 85 64 38 27 17 346 344 342 338 335 332 320 313 312 311 310 311 314 317 318 319 320 319 317 318 319 297 306 308 297 303 300 312 312 305 302 300 295
95 90 76 81 95 85 80 31 329 325 333 330 331 325 318 317 316 314 313 314 315 319 321 322 321 320 315 308 303 298 293 292 303 304 293 294 296 305 315 315 317 309 301
99 99 93 72 38 349 333 323 325 332 331 332 323 316 312 315 313 312 316 320 324 326 326 326 328 328 319 309 303 300 295 291 291 297 306 308 306 308 313 306 310 309 319
146 161 165 142 301 331 326 324 331 335 333 325 319 319 318 317 319 323 326 325 327 329 330 327 326 328 325 320 317 315 312 307 306 298 295 298 304 312 311 310 302 301 303
Height
1542 1545 1549 1551 1554 1556 1559 1559 1560 1561 1561 1563 1564 1564 1565 1566 1566 1568 1568 1568 1569 1569 1570 1570 1569 1568 1567 1566 1566 1566 1565 1565 1564 1564 1563 1563 1564 1563 1563 1564 1563 1562 1564
1543 1546 1550 1552 1554 1555 1558 1559 1561 1562 1563 1563 1565 1566 1567 1568 1568 1570 1569 1568 1569 1569 1569 1569 1569 1568 1567 1566 1566 1567 1566 1565 1564 1564 1563 1564 1564 1563 1564 1564 1565 1563 1562
1543 1547 1550 1553 1554 1556 1558 1559 1561 1562 1564 1565 1566 1567 1567 1567 1568 1568 1568 1568 1569 1569 1570 1570 1569 1569 1568 1567 1565 1566 1566 1565 1564 1563 1563 1563 1563 1564 1564 1564 1564 1563 1563
1545 1548 1550 1552 1555 1557 1560 1560 1562 1563 1564 1565 1566 1566 1567 1567 1568 1568 1568 1568 1568 1569 1568 1568 1567 1567 1566 1568 1566 1565 1565 1564 1563 1564 1564 1564 1563 1564 1564 1563 1564 1564 1564
1547 1549 1553 1555 1556 1558 1560 1561 1563 1564 1564 1565 1566 1566 1567 1568 1568 1568 1568 1569 1569 1569 1567 1568 1567 1568 1566 1567 1566 1566 1565 1564 1563 1563 1564 1564 1564 1563 1562 1563 1563 1563 1563
1548 1550 1554 1556 1557 1559 1560 1562 1563 1563 1564 1566 1566 1567 1568 1569 1569 1569 1569 1569 1569 1569 1568 1568 1567 1567 1568 1567 1567 1566 1566 1565 1564 1563 1563 1564 1564 1564 1564 1564 1563 1563 1563
1550 1552 1554 1557 1558 1558 1561 1562 1563 1564 1564 1566 1567 1568 1569 1569 1569 1570 1570 1570 1570 1571 1569 1569 1569 1568 1569 1568 1568 1567 1566 1565 1565 1564 1563 1563 1563 1563 1563 1563 1563 1562 1561
1552 1553 1555 1558 1559 1560 1561 1563 1564 1565 1566 1567 1568 1568 1570 1570 1570 1570 1570 1570 1571 1571 1570 1571 1570 1569 1569 1569 1569 1567 1567 1566 1565 1565 1564 1563 1562 1562 1561 1561 1560 1559 1558
1554 1555 1556 1558 1559 1560 1561 1562 1564 1565 1565 1567 1568 1569 1570 1571 1570 1570 1571 1571 1571 1572 1572 1572 1571 1569 1570 1570 1569 1568 1567 1567 1566 1565 1564 1564 1563 1562 1561 1560 1559 1558 1557
1553 1556 1558 1559 1559 1561 1561 1562 1564 1565 1568 1569 1570 1571 1570 1571 1572 1572 1572 1572 1571 1572 1572 1573 1572 1571 1570 1571 1570 1569 1568 1567 1566 1565 1564 1563 1563 1562 1561 1560 1559 1558 1557
1554 1556 1558 1559 1560 1561 1561 1562 1563 1565 1567 1569 1570 1571 1572 1571 1571 1571 1572 1572 1571 1572 1571 1572 1572 1571 1570 1570 1570 1569 1568 1567 1565 1564 1562 1561 1561 1560 1559 1558 1557 1556 1556
1555 1555 1557 1559 1559 1561 1562 1563 1564 1567 1568 1569 1570 1571 1572 1571 1572 1572 1571 1571 1572 1571 1570 1571 1570 1570 1570 1569 1569 1568 1567 1567 1565 1564 1562 1560 1559 1558 1556 1555 1554 1554 1553
1554 1556 1557 1558 1560 1563 1564 1565 1566 1567 1569 1570 1571 1571 1572 1572 1572 1572 1571 1571 1571 1570 1570 1569 1569 1568 1568 1567 1566 1566 1565 1564 1563 1562 1560 1558 1557 1556 1554 1553 1552 1551 1549
1554 1556 1557 1557 1560 1563 1565 1566 1568 1569 1570 1570 1571 1572 1572 1571 1570 1569 1570 1570 1569 1569 1568 1567 1567 1567 1566 1565 1564 1563 1563 1562 1560 1559 1557 1556 1554 1552 1551 1550 1549 1548 1547
1555 1556 1559 1559 1561 1563 1566 1568 1569 1569 1571 1572 1572 1570 1572 1570 1569 1568 1568 1568 1567 1568 1567 1566 1565 1564 1564 1563 1561 1560 1559 1558 1556 1555 1553 1551 1550 1548 1547 1545 1544 1543 1542
1554 1556 1559 1561 1563 1565 1566 1568 1569 1570 1571 1571 1571 1570 1570 1568 1567 1568 1567 1566 1566 1566 1565 1564 1563 1562 1560 1559 1558 1557 1555 1553 1551 1549 1547 1545 1543 1542 1542 1540 1539 1538 1537
1553 1558 1559 1560 1563 1564 1566 1568 1570 1570 1569 1569 1568 1568 1566 1565 1565 1565 1565 1564 1563 1562 1561 1560 1559 1558 1556 1555 1554 1552 1550 1549 1547 1543 1540 1538 1537 1536 1535 1534 1533 1533 1532
1552 1554 1557 1558 1561 1563 1565 1568 1569 1567 1566 1565 1565 1564 1564 1563 1563 1562 1562 1561 1560 1559 1559 1557 1556 1554 1551 1549 1547 1546 1544 1543 1541 1539 1535 1532 1530 1528 1528 1527 1526 1525 1524
1550 1552 1554 1556 1560 1562 1563 1563 1563 1564 1563 1562 1563 1563 1563 1563 1561 1561 1559 1557 1558 1554 1556 1552 1550 1548 1545 1543 1541 1539 1538 1537 1535 1533 1531 1527 1524 1523 1521 1520 1519 1518 1517
1545 1547 1549 1553 1558 1558 1558 1558 1562 1562 1564 1563 1563 1564 1563 1562 1561 1559 1558 1556 1554 1551 1550 1547 1545 1543 1539 1535 1534 1531 1531 1530 1528 1525 1524 1522 1520 1518 1516 1514 1513 1511 1511
1546 1547 1550 1553 1557 1562 1561 1560 1562 1564 1564 1563 1563 1563 1562 1561 1559 1557 1554 1552 1549 1547 1544 1542 1539 1536 1534 1530 1525 1522 1520 1520 1521 1521 1519 1516 1515 1513 1511 1508 1506 1505 1504
1549 1549 1552 1555 1558 1560 1560 1561 1562 1562 1563 1562 1562 1561 1560 1558 1556 1553 1550 1547 1545 1542 1540 1537 1534 1531 1528 1525 1522 1518 1516 1516 1514 1515 1514 1511 1509 1508 1506 1502 1499 1498 1496
1551 1553 1555 1557 1560 1562 1563 1562 1562 1562 1562 1560 1559 1557 1555 1553 1550 1548 1545 1543 1541 1538 1535 1533 1530 1527 1523 1521 1519 1519 1515 1511 1509 1510 1509 1506 1505 1503 1500 1496 1494 1492 1490
1554 1556 1557 1559 1562 1562 1562 1562 1561 1560 1559 1558 1556 1553 1551 1548 1546 1543 1541 1539 1536 1534 1531 1529 1526 1523 1520 1518 1516 1515 1514 1511 1508 1503 1504 1503 1501 1498 1495 1493 1490 1487 1486
1556 1557 1557 1558 1561 1561 1561 1560 1559 1557 1555 1553 1552 1549 1547 1545 1543 1540 1538 1535 1533 1530 1527 1523 1521 1518 1515 1513 1511 1510 1508 1507 1505 1503 1497 1498 1496 1494 1493 1490 1487 1485 1483
1554 1556 1554 1554 1558 1558 1557 1557 1556 1554 1553 1551 1549 1547 1544 1541 1539 1536 1534 1531 1528 1525 1521 1518 1516 1514 1512 1511 1509 1507 1505 1503 1501 1500 1497 1494 1491 1488 1487 1486 1484 1483 1480